Tracking 19636 objects as of 24-May-2019
HD Live streaming from Space Station
objects crossing your sky now

DSCS 3-1

Track DSCS 3-1 now!
DSCS 3-1 is classified as:


NORAD ID: 13637
Int'l Code: 1982-106B
Perigee: 36,425.2 km
Apogee: 36,560.4 km
Inclination: 15.1 °
Period: 1,472.0 minutes
Semi major axis: 42863 km
RCS: Unknown
Launch date: October 30, 1982
Source: United States (US)
Launch site: AIR FORCE EASTERN TEST RANGE (AFETR)
aabbcc
Your satellite tracking list
Your tracking list is empty




NASA's NSSDC Master Catalog

Two Line Element Set (TLE):
1 13637U 82106B   19143.42272152 -.00000167 +00000-0 +00000-0 0  9995
2 13637 015.0631 353.3382 0015771 115.9322 052.9415 00.97828954040056
Source of the keplerian elements: McCants